Location: Chervonnoye
(48.6000°N, 34.4000°E)
Time: 13:04:25
(UTC+00:00)

deb Kosmos-2237 - Pass Details

Date: 20 June 2021
Orbit: 850 x 1045 km, 71.0° (Epoch: 25 July)

Event Time Altitude Azimuth Distance (km) Brightness Sun altitude
Rises 22:31:31 0° 301° (WNW) 3,694 ? -17.2°
Reaches altitude 10° 22:37:44 10° 346° (NNW) 2,807 ? -17.0°
Maximum altitude 22:38:11 10° 350° (N) 2,805 ? -17.0°
Drops below altitude 10° 22:38:37 10° 354° (N) 2,814 ? -16.9°
Sets 22:45:01 0° 38° (NE) 3,807 ? -16.7°
